Tracking 28790 objects as of 19-Apr-2024
HD Live streaming from Space Station
objects crossing your sky now

DELTA 2 DEB

Track DELTA 2 DEB now!
10-day predictions


NORAD ID: 35568
Int'l Code: 2007-047D
Perigee: 235.0 km
Apogee: 10,288.1 km
Inclination: 39.9 °
Period: 208.1 minutes
Semi major axis: 11632 km
RCS: 0.0138 m2 (small)
Launch date: October 17, 2007
Source: United States (US)
Launch site: AIR FORCE EASTERN TEST RANGE (AFETR)

Note: This is SATELLITE DEBRIS
Your satellite tracking list
Your tracking list is empty




NASA's NSSDC Master Catalog

Two Line Element Set (TLE):
1 35568U 07047D   24105.12496978  .00020708  00000-0  57622-3 0  9995
2 35568  39.9107  35.2471 4321092 149.8047 244.4041  6.91975111  2005
Source of the keplerian elements: AFSPC